www.pogodaiklimat.ru

Погода и климат >> Архив погоды >> Пакистан >> Kakul


ПОГОДА в Kakul

  • Прогноз погоды в Kakul
  • Монитор погоды в Kakul
  • Климат города

АРХИВ ПОГОДЫ в Kakul

Время (UTC), дата Ветер
(напр.,м/с)
 
Видим.   Явления Облачность Т
(С)
Тd
(С)
f
(%)
Тe
(С)
Тes
(С)
Комфортность P
(гПа)
Po
(гПа)
Тmin
(С)
Tmax
(С)
R
(мм)
R24
(мм)
S
(см)
15 11.09 ЮЗ 1 4000 м ясно +24.0 +20.3 80 +30 +30 очень
душно
854.0 1000.0
18 11.09 штиль 0 4000 м ясно +22.5 +19.5 83 +29 +29 очень
душно
869.0 1000.0
21 11.09 штиль 0 4000 м ясно +21.0 +18.7 87 +25 +25 комфорт 862.0 1000.0
03 12.09 штиль 0 10 км 6/3 300 м
[Sc As op]
+22.0 +19.0 83 +27 +30 душно 842.0 1000.0 +19.1
06 12.09 ЮВ 1 10 км 4/4 1000 м
[Sc]
+28.5 +20.5 62 +35 +46 очень
душно
844.3 844.0
09 12.09 СЗ 1 10 км 5/5 1050 м
[Sc]
+30.0 +20.6 57 +37 +44 очень
душно
831.7 843.0
12 12.09 ЮВ 1 10 км 4/4 300 м
[Sc]
+28.0 +19.9 61 +34 +35 очень
душно
819.0 921.3 +30.5
15 12.09 штиль 0 4000 м ясно +25.0 +20.6 77 +31 +31 очень
душно
821.0 1000.0
18 12.09 штиль 0 4000 м ясно +23.0 +20.0 83 +30 +30 очень
душно
834.0 1000.0
21 12.09 штиль 0 4000 м 4/4 300 м
[St Ac trans Cs]
+21.5 +19.2 87 +26 +26 душно 840.3 921.0
00 13.09 штиль 0 4000 м 5/5 1050 м
[Sc]
+20.0 +17.7 87 +23 +23 комфорт 842.2 842.0
03 13.09 штиль 0 10 км {дождь} 10/5 1050 м
[Sc As op]
+22.0 +20.5 91 +28 +29 душно 842.3 842.0 +19.5 2
06 13.09 ЮЗ 1 10 км {дождь} 4/4 300 м
[Sc]
+23.0 +22.3 96 +31 +43 очень
душно
835.0 921.0 8
09 13.09 ЮВ 1 10 км 8/3 300 м
[Sc As op]
+26.5 +21.5 74 +34 +38 очень
душно
821.0 1000.0
12 13.09 ЮЗ 1 10 км 4/0
[As op]
+27.0 +20.4 67 +33 +35 очень
душно
818.0 1000.0 +28.5 10
15 13.09 штиль 0 4000 м 10/4 300 м
[Sc As op]
+24.5 +20.9 80 +31 +31 очень
душно
822.0 1000.0
18 13.09 штиль 0 4000 м гроза без осадков {дождь} 10/4 300 м
[Cb cap As op]
+22.5 +19.5 83 +29 +29 очень
душно
828.0 1000.0
21 13.09 штиль 0 4000 м {гроза, дождь} 10/6 300 м
[Sc As op]
+21.5 +19.2 87 +26 +26 душно 828.0 1000.0 2
00 14.09 штиль 0 4000 м 10/6 300 м
[Sc As op]
+20.5 +18.2 87 +24 +24 комфорт 825.0 1000.0 2
03 14.09 штиль 0 10 км ясно +19.0 +15.8 82 +20 +25 846.0 1000.0 +17.1
06 14.09 штиль 0 10 км ясно +25.0 +17.3 62 +29 +48 душно 861.0 1000.0
09 14.09 ЮВ 1 10 км 5/0
[As op]
+27.5 +16.8 52 +31 +40 душно 864.0 1000.0
12 14.09 ЮВ 1 10 км 3/0
[Ac trans]
+26.5 +14.6 48 +29 +31 жарко 855.0 1000.0 +28.5
15 14.09 штиль 0 4000 м 9/3 300 м
[Sc As op]
+23.0 +16.8 68 +28 +28 душно 863.0 1000.0
18 14.09 штиль 0 4000 м 3/0
[As op]
+21.0 +16.3 75 +24 +24 комфорт 869.0 1000.0
21 14.09 штиль 0 4000 м 4/0
[As op]
+20.0 +16.9 82 +22 +22 комфорт 864.0 1000.0
00 15.09 штиль 0 4000 м 4/0
[As op]
+18.5 +16.1 86 +19 +19 870.0 1000.0
03 15.09 СВ 1 10 км {морось} 9/3 300 м
[Sc As op]
+18.0 +15.6 86 +20 +21 880.0 1000.0 +17.1 0.9
06 15.09 ЮВ 1 10 км {дождь} 10/6 300 м
[Sc As op]
+17.5 +15.1 86 +19 +20 887.0 1000.0 1
09 15.09 СЗ 1 10 км в посл. час морось 10/6 300 м
[Sc As op]
+18.5 +14.4 77 +21 +22 комфорт 887.0 1000.0 0.9
12 15.09 СЗ 1 10 км 5/0
[As op]
+20.0 +14.3 70 +24 +25 комфорт 881.0 1000.0 +21.5 1
15 15.09 штиль 0 4000 м ясно +18.0 +13.8 76 +18 +18 881.0 1000.0
18 15.09 штиль 0 4000 м ясно +15.5 +12.4 82 +15 +15 875.0 1000.0
21 15.09 штиль 0 4000 м ясно +14.5 +12.8 90 +14 +14 870.0 1000.0
00 16.09 штиль 0 4000 м 3/0
[Ac trans]
+13.5 +11.7 89 +13 +13 861.8 1000.0
03 16.09 штиль 0 10 км ясно +14.0 +11.3 84 +14 +18 860.0 1000.0 +12.1
06 16.09 СЗ 1 10 км ясно +22.5 +13.4 56 +25 +43 комфорт 874.0 1000.0
09 16.09 ЮВ 1 10 км 3/0
[Ac trans]
+27.5 +13.9 43 +30 +42 жарко 864.0 1000.0
12 16.09 ЮВ 1 10 км 3/0
[Ac trans]
+26.0 +12.9 44 +28 +29 жарко 856.0 1000.0 +29.1
15 16.09 штиль 0 4000 м ясно +22.0 +14.7 63 +25 +25 комфорт 865.0 1000.0
18 16.09 штиль 0 4000 м ясно +20.5 +14.8 70 +23 +23 комфорт 876.0 1000.0
21 16.09 штиль 0 4000 м ясно +19.0 +14.9 77 +20 +20 869.0 1000.0
00 17.09 штиль 0 4000 м ясно +17.0 +14.5 85 +17 +17 860.0 1000.0
03 17.09 штиль 0 10 км ясно +16.0 +13.5 85 +16 +21 864.8 1000.0 +14.0
06 17.09 штиль 0 10 км ясно +25.0 +12.6 46 +27 +46 жарко 869.0 1000.0
09 17.09 ЮВ 1 10 км 3/0
[Ac trans]
+28.5 +13.2 39 +30 +42 жарко 858.0 1000.0
12 17.09 ЮВ 1 10 км ясно +26.0 +12.9 44 +28 +29 жарко 844.7 845.0 +29.5
15 17.09 штиль 0 4000 м ясно +22.0 +14.7 63 +25 +25 комфорт 850.0 896.6
18 17.09 штиль 0 4000 м ясно +20.0 +15.1 73 +22 +22 комфорт 865.0 1000.0
21 17.09 штиль 0 4000 м ясно +18.0 +13.8 76 +18 +18 858.0 1000.0
00 18.09 штиль 0 4000 м ясно +16.0 +13.5 85 +16 +16 849.0 1000.0
03 18.09 штиль 0 10 км ясно +16.0 +13.5 85 +16 +20 859.0 1000.0 +13.5
06 18.09 штиль 0 10 км ясно +25.0 +12.6 46 +27 +46 жарко 867.0 1000.0
09 18.09 ЮВ 1 10 км ясно +28.5 +13.2 39 +30 +45 жарко 862.0 1000.0
12 18.09 ЮВ 1 10 км ясно +27.0 +12.1 40 +28 +30 жарко 845.0 845.0 +29.5

 

Местоположение метеостанции Kakul (Пакистан): широта 34.18 долгота 73.25 высота над уровнем моря 1309 м.

В архиве по умолчанию представлена погода в Kakul за последнюю неделю. Архивные данные за месяц целиком и за предыдущие месяцы, начиная с января 2011 года, Вы можете получить, выбрав интересующий диапазон дат из раскрывающегося списка и нажав кнопку "Ввод!".


*Определитесь, кто Вы:
робот инопланетянин человек

Внимание! Время в таблицах - всемирное. Для получения местного времени необходимо прибавить поправку, которая в Kakul равна 5 ч.

Смотрите также архив погоды в соседних городах и на ближайших метеорологических станциях:

Погода в Balakor (Пакистан) (24 км)
Погода в Murree (Пакистан) (31 км)
Погода в Islamabad (Пакистан) (64 км)
Погода в Kupwara (Jammu and Kashmir, Индия) (100 км)
Погода в Saidu Sharif (Пакистан) (103 км)
Погода в Gulmarg (Jammu and Kashmir, Индия) (107 км)
Погода в Risalpur (Пакистан) (118 км)
Погода в Jhelum (Пакистан) (146 км)
Погода в Srinagar (Jammu and Kashmir, Индия) (146 км)
Погода в Peshawar (Пакистан) (155 км)

Пояснения к столбцам:

Ветер - указаны скорость ветра в м/с - средняя за 10 мин, порывы в срок и между сроками (в фигурных скобках) и направление, откуда дует ветер: С - северный, СВ - северо-восточный, В - восточный, ЮВ - юго-восточный, Ю - южный, ЮЗ - юго-западный, З - западный, СЗ - северо-западный.
Видимость - горизонтальная дальность видимости в метрах или километрах. При видимости от 1 до 10 км при отсутствии осадков обычно наблюдается дымка, при ухудшении видимости до 1 км и менее - туман. В сухую погоду видимость может ухудшаться дымом, пылью или мглою.
Явления - указаны атмосферные явления, наблюдавшиеся в срок или в последний час перед сроком; фигурными скобками обозначены явления, наблюдавшиеся между сроками (за 1-3 часа до срока); квадратными скобками обозначены град или гололедные отложения с указанием их диаметра в мм.
Облачность - указаны через наклонную черту общая и нижняя облачность в баллах и высота нижней границы облаков в метрах; квадратными скобками обозначены формы облаков: Ci - перистые, Cs - перисто-слоистые, Cc - перисто-кучевые, Ac - высококучевые, As - высокослоистые, Sc - слоисто-кучевые, Ns - слоисто-дождевые, Cu - кучевые, Cb - кучево-дождевые. Подробнее классификацию облаков см. в Атласе облаков (PDF).
T - Температура воздуха - температура, измеренная на высоте 2 м над землей.
Td - Температура точки росы - температура, при понижении до которой содержащийся в воздухе водяной пар достигнет насыщения.
f - Относительная влажность воздуха - влажноcть воздуха, измеренная на высоте 2 м над землей.
Te - Эффективная температура - температура, которую ощущает одетый по сезону человек в тени. Характеристика душности погоды. При расчете учитывается влияние влажности воздуха и скорости ветра на теплоощущения человека.
Tes - Эффективная температура на солнце - температура, которую ощущает человек, с поправкой на солнечный нагрев. Характеристика знойности погоды. Зависит от высоты солнца над горизонтом, облачности и скорости ветра. Ночью, в пасмурную погоду, а также при ветре 12 м/с и более поправка равна нулю.
P - Атмосферное давление - приведенное к уровню моря атмосферное давление.
Po - Атмосферное давление - измеренное на уровне метеостанции атмосферное давление.
Tmin - Минимальная температура - минимум температуры воздуха на высоте 2 м над землей.
Tmax - Максимальная температура - максимум температуры воздуха на высоте 2 м над землей.
R - Количество осадков - Количество выпавших осадков за период времени, мм. При наведении курсора мыши на число - период времени, за который выпало указанное количество осадков.
R24 - Количество осадков - Количество выпавших осадков за 24 часа, мм.
S - Снежный покров - Высота снежного покрова, см. При наведении курсора мыши на число - состояние снежного покрова и степень покрытия местности в баллах.